| time (UTC) | temp C | wind direction | speed KPH | gust KPH | rain 1hr cm | rain 24hr cm | rain mn cm | humidity % | barometer mb |
| 20260507101735 | 3 | 285 | 0.0 | 0.0 | 0.00 | 0.00 | 0.00 | 86 | 1013.8 |
| 20260507100734 | 2 | 270 | 0.0 | 1.6 | 0.00 | 0.00 | 0.00 | 86 | 1013.4 |
| 20260507095729 | 3 | 340 | 0.0 | 1.6 | 0.00 | 0.00 | 0.00 | 86 | 1013.8 |
| 20260507094729 | 3 | 345 | 0.0 | 1.6 | 0.00 | 0.00 | 0.00 | 85 | 1013.6 |
| 20260507093728 | 3 | 334 | 0.0 | 3.2 | 0.00 | 0.00 | 0.00 | 85 | 1013.6 |
| 20260507092724 | 3 | 0 | 0.0 | 4.8 | 0.00 | 0.00 | 0.00 | 85 | 1013.5 |
| 20260507091722 | 3 | 335 | 6.4 | 6.4 | 0.00 | 0.00 | 0.00 | 84 | 1013.6 |
| 20260507090719 | 3 | 334 | 0.0 | 6.4 | 0.00 | 0.00 | 0.00 | 83 | 1013.7 |
| 20260507085719 | 3 | 334 | 6.4 | 6.4 | 0.00 | 0.00 | 0.00 | 84 | 1013.9 |
| 20260507084719 | 3 | 356 | 3.2 | 4.8 | 0.00 | 0.00 | 0.00 | 85 | 1014.0 |
| 20260507083718 | 3 | 341 | 0.0 | 4.8 | 0.00 | 0.00 | 0.00 | 85 | 1013.7 |
| 20260507082716 | 3 | 338 | 3.2 | 3.2 | 0.00 | 0.00 | 0.00 | 86 | 1014.0 |
| 20260507081714 | 3 | 278 | 0.0 | 1.6 | 0.00 | 0.00 | 0.00 | 86 | 1014.0 |
| 20260507080713 | 3 | 0 | 0.0 | 1.6 | 0.00 | 0.00 | 0.00 | 85 | 1014.0 |
| 20260507075710 | 3 | 285 | 0.0 | 1.6 | 0.00 | 0.00 | 0.00 | 85 | 1013.9 |
| 20260507074709 | 3 | 20 | 1.6 | 1.6 | 0.00 | 0.00 | 0.00 | 86 | 1014.0 |
| 20260507073704 | 3 | 345 | 0.0 | 0.0 | 0.00 | 0.00 | 0.00 | 86 | 1014.1 |
| 20260507072704 | 3 | 337 | 0.0 | 3.2 | 0.00 | 0.00 | 0.00 | 85 | 1014.1 |
| 20260507071659 | 4 | 23 | 0.0 | 3.2 | 0.00 | 0.00 | 0.00 | 84 | 1013.9 |
| 20260507070658 | 4 | 341 | 3.2 | 3.2 | 0.00 | 0.00 | 0.00 | 84 | 1014.0 |
| 20260507065657 | 4 | 358 | 4.8 | 4.8 | 0.00 | 0.00 | 0.00 | 84 | 1014.1 |
| 20260507064657 | 4 | 12 | 0.0 | 4.8 | 0.00 | 0.00 | 0.00 | 83 | 1014.2 |
| 20260507063653 | 4 | 350 | 0.0 | 6.4 | 0.00 | 0.00 | 0.00 | 84 | 1014.3 |
| 20260507062652 | 5 | 341 | 3.2 | 4.8 | 0.00 | 0.00 | 0.00 | 84 | 1014.1 |
| 20260507061648 | 4 | 349 | 1.6 | 3.2 | 0.00 | 0.00 | 0.00 | 85 | 1014.2 |
| 20260507060643 | 4 | 0 | 0.0 | 4.8 | 0.00 | 0.00 | 0.00 | 85 | 1014.3 |
| 20260507055641 | 4 | 0 | 1.6 | 1.6 | 0.00 | 0.00 | 0.00 | 85 | 1014.3 |
| 20260507054639 | 5 | 294 | 0.0 | 1.6 | 0.00 | 0.00 | 0.00 | 85 | 1014.4 |
| 20260507053634 | 5 | 356 | 0.0 | 3.2 | 0.00 | 0.00 | 0.00 | 84 | 1014.4 |
| 20260507052630 | 5 | 240 | 0.0 | 1.6 | 0.00 | 0.00 | 0.00 | 84 | 1014.4 |
| 20260507051629 | 5 | 340 | 0.0 | 4.8 | 0.00 | 0.00 | 0.00 | 84 | 1014.4 |
| 20260507050629 | 5 | 354 | 0.0 | 4.8 | 0.00 | 0.00 | 0.00 | 84 | 1014.5 |
| 20260507045628 | 5 | 348 | 1.6 | 3.2 | 0.00 | 0.00 | 0.00 | 83 | 1014.4 |
| 20260507044628 | 6 | 264 | 0.0 | 3.2 | 0.00 | 0.00 | 0.00 | 82 | 1014.4 |
| 20260507043626 | 6 | 246 | 0.0 | 4.8 | 0.00 | 0.00 | 0.00 | 82 | 1014.4 |
| 20260507042626 | 6 | 270 | 1.6 | 3.2 | 0.00 | 0.00 | 0.00 | 82 | 1014.2 |
| 20260507041624 | 6 | 342 | 0.0 | 3.2 | 0.00 | 0.00 | 0.00 | 81 | 1014.1 |
| 20260507040624 | 7 | 355 | 1.6 | 1.6 | 0.00 | 0.00 | 0.00 | 80 | 1014.4 |
| 20260507035622 | 7 | 7 | 0.0 | 0.0 | 0.00 | 0.00 | 0.00 | 78 | 1014.2 |
| 20260507034621 | 7 | 82 | 0.0 | 4.8 | 0.00 | 0.00 | 0.00 | 76 | 1014.0 |
| 20260507033617 | 7 | 26 | 1.6 | 3.2 | 0.00 | 0.00 | 0.00 | 73 | 1014.1 |
| 20260507032617 | 8 | 352 | 3.2 | 4.8 | 0.00 | 0.00 | 0.00 | 68 | 1014.2 |
| 20260507031615 | 8 | 355 | 0.0 | 4.8 | 0.00 | 0.00 | 0.00 | 61 | 1014.3 |
| 20260507030615 | 9 | 20 | 0.0 | 3.2 | 0.00 | 0.00 | 0.00 | 57 | 1014.0 |
| 20260507025609 | 9 | 291 | 0.0 | 1.6 | 0.00 | 0.00 | 0.00 | 55 | 1013.9 |
| 20260507024604 | 10 | 357 | 4.8 | 4.8 | 0.00 | 0.00 | 0.00 | 54 | 1014.2 |
| 20260507023602 | 10 | 21 | 3.2 | 8.0 | 0.00 | 0.00 | 0.00 | 53 | 1014.2 |
| 20260507022557 | 10 | 285 | 0.0 | 9.7 | 0.00 | 0.00 | 0.00 | 54 | 1014.2 |
| 20260507021554 | 10 | 281 | 6.4 | 17.7 | 0.00 | 0.00 | 0.00 | 53 | 1014.1 |
| 20260507020549 | 10 | 209 | 1.6 | 9.7 | 0.00 | 0.00 | 0.00 | 54 | 1014.2 |
| 20260507015549 | 10 | 344 | 3.2 | 8.0 | 0.00 | 0.00 | 0.00 | 53 | 1014.0 |
| 20260507014549 | 10 | 290 | 3.2 | 8.0 | 0.00 | 0.00 | 0.00 | 53 | 1013.6 |
| 20260507013547 | 10 | 0 | 3.2 | 3.2 | 0.00 | 0.00 | 0.00 | 53 | 1013.5 |
| 20260507012542 | 10 | 255 | 0.0 | 3.2 | 0.00 | 0.00 | 0.00 | 53 | 1013.5 |
| 20260507011541 | 10 | 236 | 0.0 | 4.8 | 0.00 | 0.00 | 0.00 | 52 | 1013.4 |
| 20260507010537 | 10 | 231 | 6.4 | 8.0 | 0.00 | 0.00 | 0.00 | 52 | 1013.4 |
| 20260507005532 | 10 | 233 | 0.0 | 8.0 | 0.00 | 0.00 | 0.00 | 53 | 1013.2 |
| 20260507004531 | 10 | 245 | 0.0 | 4.8 | 0.00 | 0.00 | 0.00 | 53 | 1013.2 |
| 20260507003530 | 10 | 270 | 4.8 | 4.8 | 0.00 | 0.00 | 0.00 | 54 | 1013.1 |
| 20260507002528 | 10 | 239 | 3.2 | 6.4 | 0.00 | 0.00 | 0.00 | 51 | 1012.9 |
| 20260507001526 | 10 | 203 | 1.6 | 8.0 | 0.00 | 0.00 | 0.00 | 52 | 1012.8 |
| 20260507000526 | 10 | 225 | 4.8 | 8.0 | 0.00 | 0.00 | 0.00 | 51 | 1012.8 |
| 20260506235525 | 10 | 215 | 4.8 | 9.7 | 0.00 | 0.00 | 0.00 | 52 | 1012.8 |
| 20260506234524 | 10 | 251 | 0.0 | 6.4 | 0.00 | 0.00 | 0.00 | 50 | 1012.9 |
| 20260506233524 | 11 | 270 | 1.6 | 8.0 | 0.00 | 0.00 | 0.00 | 50 | 1012.9 |
| 20260506232523 | 11 | 286 | 3.2 | 11.3 | 0.00 | 0.00 | 0.00 | 51 | 1012.6 |
| 20260506231522 | 11 | 285 | 1.6 | 19.3 | 0.00 | 0.00 | 0.00 | 50 | 1012.8 |
| 20260506230521 | 11 | 270 | 3.2 | 9.7 | 0.00 | 0.00 | 0.00 | 50 | 1012.8 |
| 20260506225516 | 11 | 239 | 6.4 | 9.7 | 0.00 | 0.00 | 0.00 | 50 | 1012.7 |
| 20260506224515 | 11 | 1 | 6.4 | 11.3 | 0.00 | 0.00 | 0.00 | 50 | 1012.7 |
| 20260506223512 | 11 | 264 | 4.8 | 9.7 | 0.00 | 0.00 | 0.00 | 50 | 1012.9 |
| 20260506222511 | 11 | 270 | 3.2 | 6.4 | 0.00 | 0.00 | 0.00 | 52 | 1013.1 |
| 20260506221510 | 11 | 180 | 0.0 | 6.4 | 0.00 | 0.00 | 0.00 | 52 | 1013.0 |
| 20260506220508 | 11 | 279 | 0.0 | 6.4 | 0.00 | 0.00 | 0.00 | 51 | 1013.1 |
| 20260506215507 | 11 | 241 | 8.0 | 11.3 | 0.00 | 0.00 | 0.00 | 52 | 1012.9 |
| 20260506214506 | 11 | 225 | 0.0 | 8.0 | 0.00 | 0.00 | 0.00 | 52 | 1012.7 |
| 20260506213500 | 11 | 276 | 4.8 | 9.7 | 0.00 | 0.00 | 0.00 | 50 | 1012.6 |
| 20260506212459 | 11 | 287 | 6.4 | 17.7 | 0.00 | 0.00 | 0.00 | 51 | 1012.9 |
| 20260506211456 | 11 | 272 | 8.0 | 9.7 | 0.00 | 0.00 | 0.00 | 52 | 1012.8 |
| 20260506210456 | 11 | 166 | 1.6 | 6.4 | 0.00 | 0.00 | 0.00 | 51 | 1012.9 |
| 20260506205455 | 11 | 249 | 1.6 | 14.5 | 0.00 | 0.00 | 0.00 | 53 | 1013.0 |
| 20260506204455 | 11 | 243 | 0.0 | 19.3 | 0.00 | 0.00 | 0.00 | 50 | 1012.9 |
| 20260506203455 | 11 | 0 | 4.8 | 9.7 | 0.00 | 0.00 | 0.00 | 51 | 1013.0 |
| 20260506202450 | 11 | 248 | 3.2 | 8.0 | 0.00 | 0.00 | 0.00 | 51 | 1013.0 |
| 20260506201449 | 12 | 282 | 14.5 | 14.5 | 0.00 | 0.00 | 0.00 | 51 | 1013.3 |
| 20260506200448 | 11 | 256 | 8.0 | 11.3 | 0.00 | 0.00 | 0.00 | 53 | 1013.2 |
| 20260506195448 | 11 | 270 | 6.4 | 12.9 | 0.00 | 0.00 | 0.00 | 53 | 1013.3 |
| 20260506194448 | 11 | 241 | 9.7 | 17.7 | 0.00 | 0.00 | 0.00 | 51 | 1013.5 |
| 20260506193447 | 11 | 161 | 8.0 | 14.5 | 0.00 | 0.00 | 0.00 | 51 | 1013.4 |
| 20260506192447 | 11 | 247 | 8.0 | 12.9 | 0.00 | 0.00 | 0.00 | 52 | 1013.5 |
| 20260506191446 | 11 | 270 | 3.2 | 17.7 | 0.00 | 0.00 | 0.00 | 52 | 1013.4 |
| 20260506190445 | 11 | 221 | 9.7 | 11.3 | 0.00 | 0.00 | 0.00 | 55 | 1013.6 |
| 20260506185445 | 10 | 294 | 1.6 | 11.3 | 0.00 | 0.00 | 0.00 | 52 | 1013.6 |
| 20260506184445 | 10 | 333 | 8.0 | 9.7 | 0.00 | 0.00 | 0.00 | 52 | 1013.6 |
| 20260506183443 | 11 | 341 | 8.0 | 11.3 | 0.00 | 0.00 | 0.00 | 51 | 1013.5 |
| 20260506182444 | 10 | 250 | 8.0 | 17.7 | 0.00 | 0.00 | 0.00 | 53 | 1013.8 |
| 20260506181439 | 11 | 237 | 1.6 | 8.0 | 0.00 | 0.00 | 0.00 | 50 | 1013.5 |
| 20260506180437 | 10 | 359 | 12.9 | 12.9 | 0.00 | 0.00 | 0.00 | 51 | 1013.8 |
| 20260506175437 | 11 | 358 | 4.8 | 4.8 | 0.00 | 0.00 | 0.00 | 53 | 1013.8 |
| 20260506174432 | 10 | 356 | 3.2 | 8.0 | 0.00 | 0.00 | 0.00 | 57 | 1013.7 |
| 20260506173431 | 11 | 217 | 4.8 | 9.7 | 0.00 | 0.00 | 0.00 | 60 | 1014.1 |
| 20260506172431 | 10 | 297 | 1.6 | 6.4 | 0.00 | 0.00 | 0.00 | 58 | 1014.0 |
| 20260506171431 | 10 | 192 | 0.0 | 9.7 | 0.00 | 0.00 | 0.00 | 59 | 1013.9 |
| 20260506170431 | 10 | 243 | 1.6 | 4.8 | 0.00 | 0.00 | 0.00 | 60 | 1014.0 |
| 20260506165428 | 9 | 255 | 6.4 | 8.0 | 0.00 | 0.00 | 0.00 | 59 | 1014.1 |
| 20260506164426 | 10 | 247 | 3.2 | 4.8 | 0.00 | 0.00 | 0.00 | 58 | 1014.2 |
| 20260506163425 | 9 | 229 | 0.0 | 4.8 | 0.00 | 0.00 | 0.00 | 58 | 1014.2 |
| 20260506162424 | 11 | 252 | 11.3 | 12.9 | 0.00 | 0.00 | 0.00 | 62 | 1014.3 |
| 20260506161419 | 10 | 195 | 0.0 | 8.0 | 0.00 | 0.00 | 0.00 | 61 | 1014.2 |
| 20260506160414 | 8 | 296 | 6.4 | 8.0 | 0.00 | 0.00 | 0.00 | 64 | 1014.3 |
| 20260506155408 | 10 | 264 | 4.8 | 6.4 | 0.00 | 0.00 | 0.00 | 62 | 1014.3 |
| 20260506153530 | 10 | 123 | 3.2 | 6.4 | 0.00 | 0.00 | 0.00 | 62 | 1014.4 |
| 20260506152530 | 9 | 300 | 4.8 | 14.5 | 0.00 | 0.00 | 0.00 | 68 | 1014.7 |
| 20260506151526 | 9 | 267 | 4.8 | 9.7 | 0.00 | 0.00 | 0.00 | 70 | 1014.4 |
| 20260506150525 | 9 | 301 | 3.2 | 4.8 | 0.00 | 0.00 | 0.00 | 68 | 1014.4 |
| 20260506145525 | 8 | 353 | 3.2 | 8.0 | 0.00 | 0.00 | 0.00 | 68 | 1014.5 |
| 20260506144524 | 8 | 344 | 4.8 | 6.4 | 0.00 | 0.00 | 0.00 | 70 | 1014.4 |
| 20260506143520 | 8 | 0 | 0.0 | 4.8 | 0.00 | 0.00 | 0.00 | 69 | 1014.6 |
| 20260506142515 | 8 | 74 | 0.0 | 6.4 | 0.00 | 0.00 | 0.00 | 69 | 1014.4 |
| 20260506141511 | 7 | 66 | 1.6 | 3.2 | 0.00 | 0.00 | 0.00 | 69 | 1014.4 |
| 20260506140506 | 6 | 63 | 4.8 | 6.4 | 0.00 | 0.00 | 0.00 | 73 | 1014.3 |
| 20260506135506 | 6 | 96 | 9.7 | 9.7 | 0.00 | 0.00 | 0.00 | 73 | 1014.6 |
| 20260506134503 | 5 | 73 | 6.4 | 12.9 | 0.00 | 0.00 | 0.00 | 73 | 1014.2 |
| 20260506133503 | 5 | 56 | 6.4 | 8.0 | 0.00 | 0.00 | 0.00 | 72 | 1014.2 |
| 20260506132502 | 5 | 43 | 6.4 | 8.0 | 0.00 | 0.00 | 0.00 | 73 | 1014.2 |
| 20260506131457 | 5 | 21 | 8.0 | 9.7 | 0.00 | 0.00 | 0.00 | 75 | 1014.2 |
| 20260506130456 | 5 | 25 | 6.4 | 8.0 | 0.00 | 0.00 | 0.00 | 75 | 1014.3 |
| 20260506125452 | 5 | 344 | 6.4 | 8.0 | 0.00 | 0.00 | 0.00 | 76 | 1014.1 |
| 20260506124447 | 5 | 63 | 4.8 | 6.4 | 0.00 | 0.00 | 0.00 | 77 | 1013.8 |
| 20260506123442 | 5 | 60 | 3.2 | 9.7 | 0.00 | 0.00 | 0.00 | 76 | 1013.8 |
| 20260506122442 | 4 | 32 | 0.0 | 11.3 | 0.00 | 0.00 | 0.00 | 76 | 1013.5 |
| 20260506121437 | 4 | 38 | 4.8 | 4.8 | 0.00 | 0.00 | 0.00 | 77 | 1013.3 |
| 20260506120432 | 3 | 14 | 4.8 | 8.0 | 0.00 | 0.00 | 0.00 | 76 | 1013.3 |
| 20260506115427 | 3 | 82 | 1.6 | 4.8 | 0.00 | 0.00 | 0.00 | 78 | 1013.1 |
| 20260506114422 | 3 | 3 | 3.2 | 9.7 | 0.00 | 0.00 | 0.00 | 77 | 1013.2 |
| 20260506113418 | 3 | 19 | 4.8 | 16.1 | 0.00 | 0.00 | 0.00 | 76 | 1013.2 |
| 20260506112418 | 3 | 23 | 4.8 | 11.3 | 0.00 | 0.00 | 0.00 | 77 | 1013.4 |
| 20260506111413 | 3 | 324 | 3.2 | 8.0 | 0.00 | 0.00 | 0.00 | 79 | 1013.1 |
| 20260506110408 | 3 | 26 | 1.6 | 8.0 | 0.00 | 0.00 | 0.00 | 80 | 1013.2 |
| 20260506105406 | 3 | 17 | 8.0 | 9.7 | 0.00 | 0.00 | 0.00 | 82 | 1012.6 |
| 20260506104401 | 3 | 10 | 3.2 | 8.0 | 0.00 | 0.00 | 0.00 | 83 | 1012.7 |
| 20260506103356 | 3 | 0 | 4.8 | 9.7 | 0.00 | 0.00 | 0.00 | 86 | 1012.4 |
| 20260506102351 | 3 | 0 | 4.8 | 8.0 | 0.00 | 0.00 | 0.00 | 88 | 1012.1 |